PROPCUBE 3

Last updated on Wed Oct 29 2025 00:03:53 GMT+0000 (Coordinated Universal Time)

1 40973U 15058K 25301.49280546 .00004197 00000+0 35822-3 0 9994 2 40973 64.7689 255.3564 0136613 150.7858 210.0987 14.92109891 80200
UTC large
Height (km)
Speed (km/s)
/
Latitude / Longitude
Inclination (degrees)
Orbital Period (minutes)
Azimuth
Elevation
Range (km)
Doppler Factor

Next 0 passes for location: London (51.5072 / 0.1276)

Sorry there are no passes over London.